GFSGBSN_850_dewp_306.txt.gz
Dewpoint
10 10 9 9 8 8 7 6 5 -4 -19 -27 -30 -29 -26 -24 -23 -21 -20 -18 -15 -14 -15 -18 -20 -17 -14 -11 -12 -12 -10 -8 -8 -7 -5 -4 -3 -2 0 1 1 2 1 1 1 -1 -2
10 10 11 9 9 8 7 7 6 1 -16 -26 -30 -29 -26 -24 -22 -20 -19 -18 -15 -14 -15 -20 -21 -15 -12 -12 -12 -12 -9 -8 -7 -7 -5 -5 -3 -3 -3 -2 -1 -0 -1 -1 -3 -3 -3
10 9 10 11 10 9 9 7 6 5 -9 -25 -30 -28 -25 -23 -22 -19 -19 -18 -16 -14 -17 -21 -21 -18 -13 -12 -12 -7 -7 -7 -5 -6 -4 -4 -5 -4 -2 -2 -2 -3 -3 -4 -5 -5 -5
10 10 9 10 10 10 9 8 6 6 2 -22 -30 -28 -25 -22 -21 -19 -18 -17 -16 -15 -17 -21 -22 -20 -12 -12 -12 -9 -9 -7 -6 -6 -5 -5 -4 -4 -3 -3 -5 -6 -6 -4 -6 -8 -7
10 10 9 9 10 10 10 9 7 6 5 -6 -29 -28 -24 -21 -20 -18 -18 -17 -14 -18 -17 -21 -24 -14 -12 -12 -12 -11 -9 -8 -7 -6 -6 -5 -4 -4 -5 -5 -7 -9 -5 -5 -7 -8 -8
9 10 10 9 10 10 10 10 8 7 6 3 -23 -29 -23 -20 -19 -17 -17 -15 -15 -17 -16 -16 -21 -15 -12 -11 -13 -11 -8 -9 -8 -8 -8 -7 -6 -6 -8 -10 -7 -7 -6 -7 -9 -8 -8
8 8 10 10 9 9 10 10 9 8 6 4 -10 -29 -23 -19 -18 -16 -18 -14 -12 -14 -15 -9 -9 -10 -11 -12 -13 -13 -11 -10 -10 -8 -6 -7 -6 -6 -10 -11 -12 -8 -8 -8 -8 -8 -8
7 8 9 10 10 9 10 10 10 8 7 6 -10 -29 -23 -18 -16 -17 -16 -12 -15 -13 -11 -11 -11 -11 -11 -12 -12 -12 -14 -11 -9 -8 -8 -7 -5 -10 -13 -13 -11 -10 -9 -7 -7 -7 -7
4 7 8 9 9 10 9 10 10 8 7 6 -12 -29 -21 -17 -15 -16 -14 -15 -15 -14 -10 -12 -12 -11 -11 -10 -10 -11 -14 -10 -9 -8 -8 -6 -9 -12 -11 -10 -9 -9 -10 -7 -7 -6 -7
1 4 6 8 9 10 9 10 10 9 8 6 -13 -29 -21 -17 -13 -13 -13 -14 -15 -14 -5 -11 -13 -12 -11 -11 -11 -13 -15 -10 -9 -9 -10 -10 -12 -11 -10 -10 -11 -9 -10 -8 -6 -7 -8
-1 2 4 8 9 9 10 9 10 9 7 6 -14 -28 -20 -15 -10 -9 -13 -13 -13 -8 10 -10 -15 -12 -11 -11 -11 -12 -14 -10 -9 -10 -8 -9 -11 -10 -10 -11 -12 -9 -9 -7 -8 -8 -7
-2 0 3 7 8 9 10 9 10 9 7 5 -17 -26 -19 -14 -8 -8 -10 -12 -11 6 10 -10 -15 -12 -11 -10 -10 -12 -12 -14 -11 -11 -10 -10 -11 -11 -11 -11 -12 -9 -7 -7 -8 -8 -6
-5 -2 2 5 8 8 9 10 10 10 7 0 -20 -25 -17 -15 -4 -7 -9 -10 6 13 -8 -11 -13 -12 -11 -9 -9 -11 -10 -10 -7 1 -7 -11 -10 -11 -10 -8 -8 -8 -6 -1 -3 -1 -4
-3 -5 0 3 7 8 8 10 9 9 8 -6 -23 -23 -17 -14 -7 -6 -7 -6 12 -4 -9 -12 -11 -12 -11 -10 -8 -8 -7 -7 -9 -9 -9 -8 -6 -10 -11 -8 -8 -8 -7 4 0 -7 -7
-3 -5 -2 1 5 7 8 9 9 9 8 -7 -25 -21 -16 -14 -6 -7 -5 8 7 -6 -9 -11 -12 -11 -10 -10 -7 -8 -8 -8 -8 -10 -5 -6 -8 -11 -9 -9 -7 -4 -5 -3 -2 -1 -6
-5 -4 -4 -0 2 6 8 9 9 9 8 -5 -24 -15 -7 -13 -4 -7 2 5 -5 -7 -11 -12 -9 -11 -10 -10 -8 -7 -7 -7 -5 -8 -6 -8 -6 -11 -9 -9 -5 -4 -4 -0 4 12 5
-6 -3 -4 -2 4 5 7 8 9 9 8 -9 -23 -6 -6 -11 -3 -4 8 -3 -5 -5 -10 -10 -9 -9 -10 -9 -11 -9 -8 -6 -6 -4 -7 -8 -2 -9 -10 -8 -6 -3 -3 -2 -1 -3 -1
-3 -4 -5 -2 3 5 6 7 8 9 6 -17 -10 3 -6 -4 0 3 3 -6 -6 -4 -5 -8 -7 -7 -9 -9 -9 -8 -6 -6 -5 -7 -8 -6 -3 -6 -10 -9 -8 -6 -4 -5 9 8 -1
-4 -3 -5 -3 1 5 6 7 8 8 0 -11 -4 3 -0 -2 6 4 -2 -6 -4 -4 -7 -8 -6 -7 -7 -7 -6 -6 -6 -5 -5 -6 -6 -7 -2 2 -6 -6 -6 -5 -4 4 5 -3 -2
-2 -4 -4 -3 -1 4 5 7 7 8 6 -8 -6 3 4 -1 -2 -3 -3 -5 -5 -6 -6 -7 -5 -5 -4 -5 -4 -4 -4 -5 -4 -4 -7 -8 -4 7 1 6 1 5 2 3 7 4 -4
-3 -5 -2 -1 -1 4 5 6 7 8 -1 -2 -4 3 2 4 4 -4 -4 -5 -6 -5 -7 -7 -5 -5 -6 -3 -5 -4 -5 -5 -4 -3 -5 -4 5 1 -0 -5 -7 -7 -4 -4 1 0 -6
-4 -4 -2 -1 0 3 5 6 6 7 -0 -5 -2 4 1 -3 -5 -3 -4 -4 -5 -7 -6 -6 -6 -5 -5 -2 -7 -3 -5 -5 -5 -4 -4 -4 1 -3 -1 -3 -8 -6 -8 -5 -6 -8 -9
-4 -3 -3 -1 1 4 5 6 6 7 -1 -4 -3 -1 -3 -1 -2 0 0 -5 -5 -7 -5 -5 -6 -3 -4 -5 -4 -5 -5 -6 -5 -4 -3 -4 -0 -2 -2 -6 -7 -2 -6 -5 -6 -6 -7
-1 -2 -2 -1 -0 3 4 6 6 7 2 -3 -4 -1 2 4 1 -1 -3 -3 -6 -5 -4 -4 -4 -4 -4 -5 -5 -5 -4 -5 -5 -5 -5 -4 -3 -1 1 -6 2 -6 -9 -9 -6 -6 -6
-0 0 1 -0 1 3 4 5 6 6 0 -4 -5 -3 1 5 1 -0 -1 -3 -5 -6 -4 -3 -3 -5 -7 -5 -1 6 2 -2 -1 -5 -6 -6 -4 2 5 -4 -8 -12 -9 -7 -7 -9 -8
-1 -0 0 0 0 1 3 4 6 6 -1 -2 -4 -2 -0 3 3 1 1 -0 -2 -2 -1 -1 -5 -6 -5 -0 7 10 3 3 -0 -3 -6 -7 -6 -4 -2 2 3 -6 -9 -8 -8 -8 -7
-1 -0 -1 1 1 1 3 4 5 5 -1 -1 -1 -2 -1 1 0 -1 -0 -0 -4 -4 1 -2 -3 -3 -4 5 8 2 -0 -4 -1 0 -0 -4 -3 5 -1 -2 -8 -10 -10 -8 -7 -1 -5
-0 -1 -0 1 1 2 4 4 5 4 -1 -1 -2 0 -2 -0 -1 -1 -1 -2 -2 -2 4 -2 -0 -0 3 8 5 2 0 -2 -3 -4 -3 -3 1 2 -1 4 -1 -8 -8 -7 -4 -4 -4
-1 -0 0 1 2 2 4 5 5 4 -0 -0 -1 -2 -1 1 -1 -2 -2 -2 -3 -4 -4 -3 -0 -3 -1 5 2 1 1 -1 -2 -0 -4 -1 -2 -0 -1 -2 -3 -4 -4 -4 -4 -4 -4

GFSGBSN_850_dewp_309.txt.gz
Dewpoint
10 11 11 10 9 9 8 7 7 4 -9 -23 -30 -29 -26 -24 -23 -21 -20 -17 -16 -15 -17 -20 -17 -20 -11 -11 -12 -10 -11 -8 -7 -6 -4 -2 -1 1 3 3 4 5 4 4 3 1 1
10 10 10 11 10 9 9 7 7 6 -4 -20 -28 -29 -26 -24 -23 -21 -20 -17 -16 -15 -19 -20 -15 -11 -10 -12 -11 -9 -9 -6 -7 -6 -5 -4 -1 1 1 1 3 2 1 1 -0 -1 -2
10 10 10 10 11 10 9 8 7 7 2 -16 -27 -30 -26 -23 -22 -20 -19 -18 -16 -16 -20 -19 -18 -10 -10 -11 -9 -8 -7 -5 -6 -5 -3 -3 -3 -2 1 2 1 0 -0 -2 -3 -4 -4
10 10 10 10 11 11 10 9 9 7 6 -9 -25 -30 -26 -23 -21 -19 -19 -18 -16 -17 -20 -22 -18 -9 -10 -11 -9 -7 -6 -5 -5 -5 -4 -3 -2 -2 -2 -1 -3 -4 -5 -3 -5 -5 -7
9 10 10 10 10 10 11 10 9 8 6 4 -20 -30 -27 -22 -20 -19 -18 -17 -15 -18 -20 -23 -12 -9 -11 -11 -10 -8 -7 -6 -5 -5 -4 -4 -4 -3 -3 -4 -4 -5 -4 -4 -7 -9 -11
8 9 10 10 10 9 10 10 10 9 7 6 -6 -30 -28 -22 -19 -17 -18 -15 -17 -18 -19 -22 -12 -10 -12 -11 -10 -9 -8 -7 -5 -5 -5 -4 -5 -5 -6 -6 -5 -6 -5 -6 -8 -9 -9
5 8 9 10 10 9 10 10 10 10 8 6 4 -27 -29 -23 -19 -15 -17 -11 -8 -8 -10 -8 -9 -11 -10 -11 -11 -11 -8 -8 -7 -6 -5 -6 -5 -5 -9 -10 -11 -8 -8 -9 -10 -10 -10
1 5 8 9 9 10 10 10 10 10 9 7 5 -20 -29 -22 -18 -16 -15 -5 -6 -8 -10 -11 -10 -9 -10 -10 -12 -12 -10 -9 -7 -6 -6 -6 -4 -9 -13 -14 -11 -10 -10 -9 -10 -10 -7
-0 1 5 9 9 10 10 10 10 10 9 8 6 -15 -28 -22 -18 -16 -6 -3 -15 -9 -10 -11 -11 -12 -11 -10 -10 -11 -12 -10 -9 -7 -8 -5 -7 -12 -12 -12 -12 -12 -11 -9 -10 -9 -9
-2 -1 2 6 8 9 10 10 10 10 10 8 7 -11 -27 -20 -16 -15 -5 -15 -14 -13 -6 -11 -13 -13 -12 -11 -11 -12 -11 -10 -8 -7 -8 -8 -12 -12 -11 -11 -11 -9 -12 -11 -10 -9 -8
-4 -3 -1 3 7 8 9 10 10 10 10 9 7 -9 -26 -18 -8 -9 -10 -14 -13 -6 16 -10 -14 -12 -12 -12 -12 -12 -11 -10 -9 -9 -7 -6 -11 -10 -10 -10 -11 -8 -12 -10 -10 -9 -10
-3 -3 -2 1 6 8 9 10 10 9 10 9 7 -10 -25 -17 -14 -12 -12 -13 -9 7 14 -10 -15 -12 -12 -12 -12 -13 -12 -10 -11 -10 -9 -9 -11 -10 -10 -12 -13 -11 -8 -9 -9 -9 -5
-3 -3 -4 -0 3 7 8 9 10 9 10 9 7 -14 -22 -7 -2 -13 -11 -7 5 12 -8 -11 -14 -12 -12 -11 -12 -13 -11 -10 -8 -4 -6 -10 -10 -11 -10 -9 -10 -9 -6 1 -1 -2 -0
-4 -3 -3 -3 1 5 7 9 10 10 9 9 6 -22 -22 -7 -2 -8 -9 -1 14 -4 -11 -13 -14 -12 -10 -11 -10 -10 -11 -8 -8 -8 -8 -6 -6 -10 -9 -8 -8 -8 -5 7 5 -2 -6
-7 -6 -2 -2 -1 3 6 8 9 9 10 8 1 -24 -16 -17 -9 -7 -5 12 7 -7 -11 -12 -13 -10 -10 -10 -8 -9 -9 -9 -11 -10 -4 -7 -6 -11 -11 -9 -7 -7 -2 -3 -1 -4 -9
-7 -7 -6 -3 -3 1 5 7 8 9 9 8 -7 -5 -6 -16 -8 -4 2 6 -5 -9 -12 -12 -8 -11 -9 -10 -9 -8 -8 -10 -8 -10 -6 -7 -4 -11 -9 -8 -6 -3 -5 -2 5 10 4
-6 -8 -8 -5 -4 -2 1 5 7 8 9 8 -9 -6 -1 -14 -6 -3 8 -2 -6 -8 -12 -9 -8 -8 -11 -11 -11 -9 -9 -7 -8 -7 -8 -9 -1 -8 -9 -8 -7 -5 -3 -2 2 -0 1
-6 -7 -1 -5 -4 -3 -0 4 6 8 8 2 -5 2 2 -13 -0 1 5 -5 -7 -8 -8 -9 -10 -9 -9 -11 -10 -10 -10 -8 -7 -7 -9 -7 -1 -3 -9 -8 -8 -6 -5 -4 9 7 -2
-5 -3 -2 -3 -4 -3 -1 4 5 7 7 2 -2 4 5 -1 7 6 -3 -4 -7 -7 -10 -8 -7 -8 -8 -8 -7 -9 -9 -5 -6 -7 -7 -6 -1 2 -5 -6 -7 -5 -4 5 7 -1 -1
-3 -4 -3 -3 -5 -5 -1 4 5 7 7 1 -1 3 -0 1 -4 -1 -1 -1 -3 -6 -9 -9 -7 -6 -5 -5 -6 -6 -6 -6 -5 -6 -4 -6 -2 4 2 6 2 6 2 5 6 3 -3
-5 -4 -4 -5 -4 -4 -2 3 4 5 6 1 -1 3 1 6 5 -3 -3 -4 -4 -4 -7 -8 -6 -7 -5 -3 -5 -4 -6 -5 -4 -3 -6 -4 5 1 -1 -7 -7 -7 -3 -1 3 -3 -3
-4 -5 -4 -4 -5 -5 0 2 4 5 6 3 1 4 0 -1 -3 -3 -2 -3 -4 -5 -6 -7 -6 -7 -6 -2 -4 -2 -5 -5 -6 -3 -3 -4 1 -3 -2 -4 -8 -8 -10 -6 -5 -8 -9
-4 -3 -4 -4 -6 -4 -1 1 4 5 4 3 2 2 -2 -1 -2 -0 0 -3 -4 -6 -6 -7 -7 -5 -4 -6 -4 -5 -7 -6 -6 -3 -3 -2 1 -1 -2 -6 -6 -2 -5 -8 -7 -8 -9
-5 -4 -3 -3 -6 -2 0 2 4 4 5 4 2 2 2 4 -2 -2 -3 -4 -4 -5 -4 -5 -5 -6 -3 -4 -4 -4 -4 -4 -4 -5 -5 -3 -2 0 3 -5 5 -8 -10 -10 -8 -8 -7
-6 -4 -1 -3 -5 -3 -0 1 3 4 5 5 3 1 3 6 -2 -3 -4 -4 -6 -6 -6 -4 -3 -3 -4 -4 -1 5 1 -1 -1 -6 -5 -5 -3 6 7 -1 -7 -10 -10 -11 -8 -7 -8
-5 -3 -1 -3 -4 -3 -1 2 3 4 5 4 1 2 3 3 2 -2 -4 -4 -2 -2 -1 -1 -2 -2 -3 -2 6 8 4 2 -0 -3 -6 -6 -4 -3 -1 3 5 -3 -9 -9 -10 -7 -8
-3 -3 -0 -2 -3 -2 -1 1 3 4 5 3 1 3 4 6 2 -0 -1 -1 -2 -2 3 -1 -1 -1 -1 6 8 1 -1 -4 0 1 2 -3 -2 5 1 -2 -6 -9 -10 -9 -6 -0 -7
-4 -1 -1 0 0 1 1 2 3 4 4 2 1 1 2 5 3 2 2 2 1 2 6 -0 0 0 3 7 5 4 1 -1 -3 -4 -3 -2 1 4 1 7 1 -9 -10 -8 -3 -4 -5
-3 -1 -0 -0 1 1 1 1 3 4 3 2 2 1 1 1 3 1 -0 -0 0 -1 0 -1 -1 -1 -1 6 4 3 2 1 -2 -0 -5 -2 -3 -0 -0 -1 -2 -8 -4 -4 -4 -4 -4

GFSGBSN_850_dewp_312.txt.gz
Dewpoint
9 10 10 10 11 9 9 8 7 6 1 -17 -27 -30 -27 -24 -23 -22 -21 -18 -17 -16 -20 -16 -20 -20 -10 -10 -11 -9 -9 -9 -6 -5 -2 -0 2 3 4 5 5 5 5 5 4 3 2
10 10 10 10 10 10 9 8 8 7 6 -11 -25 -30 -28 -24 -23 -22 -20 -18 -17 -17 -21 -16 -11 -9 -7 -11 -10 -8 -7 -7 -7 -4 -5 -3 1 3 4 3 4 3 2 2 1 -0 -2
10 10 10 11 10 11 10 9 8 8 6 0 -22 -30 -29 -25 -23 -21 -19 -19 -18 -17 -21 -21 -10 -10 -13 -10 -8 -8 -5 -6 -7 -6 -1 0 -1 -1 2 2 2 1 2 0 -0 -1 -2
9 9 10 9 10 10 11 10 9 9 7 6 -11 -29 -29 -26 -23 -21 -19 -19 -18 -19 -21 -21 -12 -8 -10 -9 -8 -6 -5 -5 -4 -4 -4 -2 0 1 1 1 1 0 -1 -0 -3 -4 -4
7 8 9 10 9 10 10 11 10 9 8 6 4 -25 -30 -26 -23 -20 -18 -18 -17 -19 -22 -22 -10 -6 -11 -10 -8 -6 -6 -4 -4 -3 -3 -3 -3 -1 0 -0 -1 -3 -2 -2 -3 -6 -8
4 7 8 9 10 9 10 10 11 10 9 7 6 -7 -30 -26 -22 -20 -17 -17 -18 -14 -19 -19 -11 -7 -12 -11 -9 -7 -7 -4 -4 -4 -4 -3 -3 -2 -3 -3 -2 -3 -3 -4 -6 -8 -11
-0 3 6 8 9 10 10 9 10 10 9 9 7 3 -29 -27 -21 -19 -17 -13 -8 -5 -9 -7 -9 -10 -11 -11 -11 -9 -7 -5 -5 -5 -4 -5 -4 -3 -5 -9 -10 -9 -5 -7 -9 -11 -10
-0 -0 2 6 8 9 10 10 10 10 10 9 8 5 -21 -27 -21 -17 -16 2 -4 -5 -10 -11 -9 -10 -11 -10 -12 -11 -9 -7 -5 -4 -5 -5 -3 -9 -13 -13 -10 -9 -9 -9 -11 -11 -7
-2 0 0 2 6 8 9 10 9 10 10 9 8 6 -12 -27 -20 -16 -15 0 -7 -8 -6 -11 -12 -11 -11 -10 -11 -12 -11 -10 -7 -5 -5 -4 -7 -12 -14 -12 -11 -11 -10 -9 -10 -11 -8
-1 -1 -1 -0 2 6 9 9 10 10 10 10 9 7 -8 -25 -19 -13 -11 -12 -12 -11 -2 -9 -14 -13 -12 -10 -10 -12 -11 -9 -7 -6 -7 -7 -12 -12 -12 -12 -10 -11 -12 -13 -11 -10 -8
-3 -3 -2 -1 0 4 8 9 10 10 10 10 9 7 -6 -23 0 -4 -3 -15 -15 -7 10 -11 -15 -13 -13 -12 -11 -13 -12 -11 -8 -7 -7 -7 -11 -11 -11 -10 -10 -8 -13 -12 -12 -11 -9
-4 -4 -3 -4 -4 1 6 9 9 10 10 10 9 7 -6 -23 -9 1 -9 -15 -10 7 5 -10 -15 -14 -13 -12 -13 -13 -12 -10 -10 -8 -7 -8 -10 -9 -10 -12 -13 -11 -10 -10 -10 -8 -3
-6 -4 -4 -3 -3 -1 4 8 9 10 10 10 9 8 -7 -7 -1 -4 -14 -10 6 11 -8 -10 -14 -13 -13 -12 -12 -13 -10 -8 -4 -2 -5 -10 -9 -11 -10 -11 -11 -10 -6 6 1 3 3
-5 -5 -5 -4 -3 -3 1 6 8 9 10 9 10 8 -9 -13 3 -5 -11 -0 7 -1 -8 -14 -14 -12 -11 -12 -11 -12 -11 -8 -9 -9 -6 -6 -4 -10 -9 -7 -7 -8 -4 13 8 3 -1
-5 -4 -6 -6 -4 -3 -1 5 7 8 9 9 9 8 -10 -16 -8 -7 -0 8 6 -3 -9 -12 -12 -10 -10 -11 -7 -9 -9 -9 -9 -8 -1 -3 -6 -10 -10 -9 -7 -7 -1 -2 1 1 -2
-6 -5 -5 -7 -7 -4 -2 2 6 8 9 9 9 8 -4 -20 -12 -3 4 5 -5 -9 -13 -12 -6 -8 -7 -9 -8 -7 -8 -10 -10 -10 -5 -6 -1 -10 -9 -9 -7 -1 -4 5 10 7 6
-6 -6 -5 -8 -4 -7 -3 0 5 7 8 7 8 -0 -3 -3 -11 -0 7 2 -6 -10 -13 -10 -9 -7 -8 -7 -9 -7 -8 -6 -9 -7 -8 -7 3 -7 -9 -8 -6 -2 1 1 6 5 9
-6 -7 -6 -7 -7 -10 -4 -2 2 5 6 6 3 2 6 -3 -1 2 6 -3 -7 -9 -12 -8 -9 -7 -6 -8 -9 -9 -9 -8 -9 -7 -7 -5 3 0 -8 -7 -8 -6 -4 -1 10 6 6
-5 -6 -6 -6 -7 -6 -6 -2 -0 4 5 6 1 3 7 -1 6 5 -4 -3 -6 -8 -9 -8 -7 -7 -6 -4 -4 -5 -7 -5 -7 -6 -6 -3 5 7 -4 -5 -7 -3 -2 4 7 3 6
-6 -5 -5 -5 -3 -3 -6 -2 0 4 5 6 1 6 5 4 -1 -0 -2 -2 -3 -6 -8 -10 -8 -7 -5 -3 -5 -2 -4 -5 -6 -6 -5 -6 -4 6 7 6 4 4 2 4 6 8 3
-6 -6 -4 -4 -3 -2 -4 -3 0 3 4 5 3 3 3 3 5 -1 -1 -3 -2 -3 -7 -9 -5 -6 -3 -1 -2 -1 -5 -4 -5 -4 -4 -4 5 2 1 -4 -4 -4 -2 1 5 1 1
-7 -6 -6 -5 -4 -4 -5 -5 -1 3 4 5 3 4 3 -1 -3 0 1 0 -2 -3 -5 -6 -5 -6 -5 -0 -0 -0 -5 -4 -4 -3 -3 -4 4 -1 1 -6 -7 -8 -10 -5 -1 -2 -4
-6 -7 -6 -5 -5 -5 -5 -5 -2 2 3 4 4 3 1 1 -1 2 3 -1 -2 -3 -4 -5 -6 -6 -5 -5 -5 -4 -5 -5 -6 -2 -1 -1 4 2 2 -5 -5 1 -3 -6 -6 -6 -4
-6 -6 -5 -5 -5 -5 -6 -6 -1 1 3 4 4 4 4 4 0 0 -1 -2 -2 -4 -2 -5 -6 -5 -3 -3 -4 -4 -4 -4 -5 -5 -4 -2 1 5 8 -3 3 -8 -9 -9 -6 -6 -6
-7 -7 -6 -6 -5 -5 -6 -7 -2 1 2 4 5 4 4 6 -0 -2 -1 -2 -3 -3 -3 -5 -4 -3 -4 -4 3 5 6 3 -1 -5 -4 -4 2 7 7 1 -5 -7 -9 -10 -11 -7 -8
-6 -6 -7 -9 -6 -3 -3 -6 0 1 2 4 5 5 5 5 4 0 -1 -2 2 1 -1 -0 -1 -2 -3 2 7 6 6 3 2 -3 -6 -5 -1 3 3 6 5 -0 -9 -9 -10 -4 -7
-7 -6 -8 -6 -5 -2 -3 -6 -0 1 3 3 5 5 6 5 4 2 2 1 -2 -3 3 0 -0 -1 -0 6 6 3 2 -4 2 3 1 0 3 6 5 2 -2 -8 -10 -9 -4 2 -6
-6 -8 -6 -4 -4 -2 -2 -5 -1 1 2 3 4 5 6 5 4 4 2 -1 -2 -2 6 0 3 2 5 6 6 6 3 3 -0 -2 -2 0 3 6 4 7 4 -9 -10 -8 -2 -4 -5
-5 -8 -6 -4 -2 -2 -2 -3 -2 0 2 3 4 5 5 4 4 4 3 2 1 -1 2 0 1 0 3 8 7 6 6 5 1 3 -5 0 0 4 3 3 -2 -8 -3 -3 -4 -4 -4

GFSGBSN_850_dewp_315.txt.gz
Dewpoint
8 9 10 11 10 10 9 8 7 6 6 -4 -21 -29 -29 -27 -24 -22 -21 -19 -18 -18 -20 -15 -17 -18 -10 -11 -11 -8 -9 -9 -5 -5 -3 2 4 5 6 6 7 8 7 7 7 3 1
9 9 9 10 11 10 9 9 8 7 6 5 -14 -27 -30 -28 -25 -22 -21 -19 -18 -18 -21 -12 -10 -9 -7 -12 -7 -7 -5 -10 -7 -3 -1 1 4 5 5 4 4 3 2 2 1 -2 -3
9 9 10 9 10 11 10 10 9 8 7 6 2 -24 -30 -28 -25 -23 -20 -19 -18 -19 -22 -11 -10 -12 -13 -10 -7 -7 -5 -6 -6 1 2 3 3 2 3 2 2 1 1 -1 -2 -2 -3
7 8 9 10 10 10 10 10 10 9 8 7 5 -7 -30 -29 -25 -23 -20 -19 -19 -20 -22 -17 -8 -12 -10 -7 -6 -5 -4 -4 -3 -2 -1 -1 1 1 2 1 1 1 0 2 -0 -2 -2
3 7 8 9 10 9 10 10 10 9 9 8 6 5 -21 -30 -25 -23 -20 -19 -18 -20 -23 -20 -8 -7 -11 -9 -6 -6 -4 -3 -2 0 0 -2 -1 1 1 2 1 0 1 -1 -2 -4 -5
2 3 6 8 9 9 10 10 10 10 9 9 7 5 -2 -30 -25 -22 -19 -18 -18 -13 -18 -12 -10 -8 -11 -11 -7 -6 -4 -4 -3 -3 -3 -3 -0 2 0 -0 1 -0 -1 -2 -2 -4 -8
-1 1 1 5 8 9 9 10 10 10 10 9 8 7 5 -28 -25 -21 -18 -10 -4 -6 -9 -8 -9 -10 -11 -11 -10 -8 -6 -5 -5 -4 -2 -4 -0 0 -1 -2 -6 -7 -3 -4 -6 -8 -9
-1 -2 -1 -0 5 7 9 10 10 10 10 9 9 8 6 -19 -25 -19 -8 2 -3 -3 -6 -12 -10 -10 -12 -10 -11 -11 -10 -8 -5 -2 -3 -3 -4 -10 -13 -13 -11 -6 -5 -8 -10 -10 -9
-2 -1 -1 1 -1 5 7 9 10 10 10 10 10 8 6 -12 -25 -19 -15 0 -4 -5 -2 -11 -11 -11 -11 -10 -10 -11 -11 -10 -7 -3 -4 -2 -8 -11 -12 -12 -8 -9 -7 -10 -10 -11 -10
-2 -2 -1 -2 -0 -1 5 8 8 10 10 10 10 9 7 -14 -21 -14 -15 -11 -12 -10 2 -8 -12 -13 -11 -9 -9 -12 -11 -9 -7 -4 -6 -7 -11 -10 -11 -9 -8 -8 -10 -10 -10 -9 -6
-4 -4 -3 -2 -2 -1 1 6 8 9 10 10 10 9 7 -13 -0 -6 -3 -12 -14 -10 2 -5 -13 -13 -13 -11 -12 -12 -12 -11 -6 -8 -4 -6 -8 -7 -8 -8 -8 -9 -12 -12 -10 -9 -8
-4 -4 -4 -4 -4 -4 -1 3 8 9 10 10 10 10 8 -11 -12 1 -5 -14 -8 1 -1 -7 -14 -13 -12 -12 -12 -13 -11 -9 -9 -7 -7 -8 -10 -9 -9 -12 -10 -11 -9 -9 -8 -7 -2
-4 -5 -4 -4 -4 -3 -4 0 6 8 9 10 10 10 8 -15 -9 -8 -7 -11 -2 -1 -4 -9 -12 -12 -10 -10 -11 -12 -9 -8 -4 -4 -4 -9 -9 -11 -9 -10 -11 -10 -4 5 0 2 1
-5 -4 -5 -6 -5 -4 -3 -3 4 8 9 10 10 9 9 -14 0 1 -9 3 -3 -2 -5 -13 -11 -11 -9 -11 -10 -9 -8 -6 -7 -5 -4 -3 -5 -9 -9 -6 -5 -7 -2 8 6 7 3
-6 -5 -6 -5 -5 -7 -5 -4 -0 6 8 9 9 9 9 -8 -0 0 1 4 1 1 -9 -11 -10 -8 -9 -7 -7 -9 -7 -6 -6 -7 -2 -2 -5 -10 -9 -8 -7 -3 -4 -2 2 4 2
-5 -5 -5 -6 -4 -6 -6 -3 -2 4 7 8 7 8 9 -2 -3 -1 5 4 1 -8 -11 -10 -5 -6 -5 -8 -7 -6 -6 -6 -6 -6 -4 -2 -3 -9 -9 -9 -7 -1 -1 -0 4 -5 4
-5 -5 -6 -7 -6 -7 -8 -7 -3 1 7 7 6 7 8 1 -2 4 5 5 -3 -10 -13 -9 -6 -5 -5 -6 -7 -6 -5 -7 -6 -6 -8 -4 -1 -6 -8 -7 -3 -1 0 1 4 5 6
-5 -5 -6 -6 -6 -6 -9 -8 -3 0 5 5 6 5 5 -2 3 5 4 2 -6 -11 -13 -8 -8 -7 -4 -4 -5 -6 -5 -2 -6 -8 -6 -2 1 -3 -6 -7 -7 -6 -2 2 4 -1 4
-4 -5 -6 -6 -7 -7 -9 -8 -5 -0 4 5 5 7 4 -0 2 3 -0 -1 -3 -9 -10 -7 -5 -7 -7 -4 -3 -5 -1 -6 -6 -6 -3 -3 1 1 -3 -3 -5 -6 -2 3 4 3 3
-4 -4 -5 -5 -7 -7 -8 -7 -5 0 4 4 4 5 7 5 -1 2 0 -1 -0 -7 -10 -9 -6 -7 -5 -4 -3 -1 -1 -4 -6 -4 -7 -5 -2 -1 -0 1 1 -4 0 3 1 4 2
-4 -4 -5 -5 -6 -7 -6 -4 -5 1 3 4 4 3 5 4 4 2 0 -1 -1 -1 -6 -9 -5 -4 -3 -2 -2 -3 -2 -2 -4 -4 -4 -3 -1 0 1 -0 -1 -2 -4 3 2 -1 1
-4 -4 -5 -5 -5 -5 -6 -4 -4 -0 2 3 3 5 4 3 -0 1 2 -1 -2 -2 -4 -5 -3 -3 -3 -1 -1 -0 -1 -2 -2 -2 -3 -3 1 -1 -1 -2 -4 -5 -6 -1 0 -2 -2
-3 -5 -5 -5 -5 -5 -5 -4 -4 -3 2 3 4 4 3 1 1 2 3 -2 -0 -2 -3 -5 -5 -2 -2 -2 -3 -4 -5 -6 -3 -1 -1 -0 1 1 1 -4 -5 -3 -3 -4 -5 -1 -2
-5 -5 -5 -6 -5 -5 -5 -5 -4 -4 1 3 4 5 3 3 -1 -1 1 -0 -1 -0 0 -4 -8 -2 -3 -4 -4 -4 -4 -4 -4 -2 -4 1 1 2 4 -2 -5 -5 -8 -7 -5 -4 -3
-4 -5 -5 -6 -5 -5 -5 -6 -6 -5 -1 2 4 6 4 4 -1 -4 -1 0 -1 -2 -0 -4 -4 -5 -4 -4 2 1 1 -2 -2 -3 -3 -1 1 2 1 2 -3 -6 -8 -10 -10 -7 -6
-5 -5 -5 -6 -5 -6 -7 -6 -7 -7 -2 2 3 5 6 4 3 -0 -1 1 4 2 2 -0 -3 -4 -4 3 1 1 2 -1 -1 -2 -5 -4 1 0 2 3 2 -0 -10 -10 -10 -7 -6
-6 -6 -7 -7 -6 -8 -10 -8 -6 -7 -5 1 3 4 6 6 5 1 2 2 1 1 4 1 -0 -1 1 2 3 3 3 0 1 0 -1 -1 1 2 3 2 0 -7 -9 -9 -7 -3 -5
-6 -7 -6 -6 -6 -9 -9 -5 -4 -7 -6 1 2 3 5 7 6 5 3 2 2 2 3 1 1 1 3 2 2 1 2 -0 1 1 -1 0 1 1 1 0 1 -9 -9 -8 -3 -5 -4
-6 -7 -7 -6 -8 -9 -6 -5 -3 -4 1 2 2 3 5 6 6 6 4 3 3 2 -0 -1 -1 1 3 2 3 2 2 1 1 3 -3 0 1 2 1 1 -3 -4 -3 -4 -4 -4 -3